This is the latest recevied weather packets stored in our database for station/object NA9VY-8. If no packets are shown the sender has not sent any weather packets the latest 10 day(s).
| Time | Temp. | Humidity | Pressure | Rain* | Wind** | Luminosity | Snow |
|---|---|---|---|---|---|---|---|
| 1777773176 | 4.44° C | 79% | 1024.2 hPa | 0 mm | - | 0 W/m² | - |
| 1777772871 | 5° C | 79% | 1024 hPa | 0 mm | - | 0 W/m² | - |
| 1777772570 | 5° C | 77% | 1024 hPa | 0 mm | - | 0 W/m² | - |
| 1777772266 | 5° C | 78% | 1023.9 hPa | 0 mm | - | 0 W/m² | - |
| 1777771964 | 5.56° C | 77% | 1023.8 hPa | 0 mm | - | 0 W/m² | - |
| 1777771661 | 5.56° C | 77% | 1023.8 hPa | 0 mm | - | 0 W/m² | - |
| 1777771358 | 6.11° C | 77% | 1023.5 hPa | 0 mm | - | 0 W/m² | - |
| 1777771055 | 6.11° C | 76% | 1023.7 hPa | 0 mm | - | 0 W/m² | - |
| 1777770753 | 6.67° C | 71% | 1023.5 hPa | 0 mm | - | 0 W/m² | - |
| 1777770448 | 6.67° C | 67% | 1023.3 hPa | 0 mm | - | 0 W/m² | - |
| 1777770145 | 7.22° C | 65% | 1023.3 hPa | 0 mm | - | 0 W/m² | - |
| 1777769843 | 7.78° C | 65% | 1023.2 hPa | 0 mm | - | 0 W/m² | - |
| 1777769540 | 8.33° C | 62% | 1023.3 hPa | 0 mm | - | 0 W/m² | - |
| 1777769236 | 8.33° C | 57% | 1023.2 hPa | 0 mm | - | 0 W/m² | - |
| 1777768934 | 8.89° C | 55% | 1023.3 hPa | 0 mm | - | 0 W/m² | - |
| 1777768631 | 8.89° C | 53% | 1023.2 hPa | 0 mm | - | 1 W/m² | - |
| 1777768328 | 9.44° C | 50% | 1022.9 hPa | 0 mm | - | 4 W/m² | - |
| 1777768025 | 9.44° C | 49% | 1022.9 hPa | 0 mm | - | 2 W/m² | - |
| 1777767721 | 10° C | 51% | 1022.9 hPa | 0 mm | - | 5 W/m² | - |
| 1777767417 | 10° C | 49% | 1022.8 hPa | 0 mm | - | 9 W/m² | - |
| 1777767114 | 10° C | 47% | 1022.7 hPa | 0 mm | - | 11 W/m² | - |
| 1777766812 | 10.56° C | 46% | 1022.6 hPa | 0 mm | - | 13 W/m² | - |
| 1777766509 | 10.56° C | 47% | 1022.4 hPa | 0 mm | - | 16 W/m² | - |
| 1777766206 | 10.56° C | 47% | 1022.7 hPa | 0 mm | - | 17 W/m² | - |
| 1777765904 | 11.11° C | 44% | 1022.4 hPa | 0 mm | - | 21 W/m² | - |
* Rain latest hour (hover to see other rain measurements)
** Current wind speed in m/s (hover to see current wind gust speed)